This is the latest recevied weather packets stored in our database for station/object KD4UFD. If no packets are shown the sender has not sent any weather packets the latest 10 day(s).
| Time | Temp. | Humidity | Pressure | Rain* | Wind** | Luminosity | Snow |
|---|---|---|---|---|---|---|---|
| 1778040884 | 20° C | 59% | 1010.9 hPa | 0 mm | - | 0 W/m² | - |
| 1778040581 | 20° C | 59% | 1010.9 hPa | 0 mm | - | 0 W/m² | - |
| 1778040279 | 20° C | 60% | 1011.1 hPa | 0 mm | - | 0 W/m² | - |
| 1778039974 | 20° C | 61% | 1010.8 hPa | 0 mm | - | 0 W/m² | - |
| 1778039672 | 20° C | 62% | 1010.8 hPa | 0 mm | - | 0 W/m² | - |
| 1778039368 | 20.56° C | 60% | 1010.9 hPa | 0 mm | - | 0 W/m² | - |
| 1778039066 | 20.56° C | 58% | 1010.9 hPa | 0 mm | - | 0 W/m² | - |
| 1778038763 | 21.11° C | 55% | 1011 hPa | 0 mm | - | 0 W/m² | - |
| 1778038460 | 21.67° C | 52% | 1011.2 hPa | 0 mm | - | 0 W/m² | - |
| 1778038157 | 21.67° C | 52% | 1011 hPa | 0 mm | - | 0 W/m² | - |
| 1778037854 | 21.67° C | 52% | 1011 hPa | 0 mm | - | 0 W/m² | - |
| 1778037550 | 21.67° C | 53% | 1010.9 hPa | 0 mm | - | 0 W/m² | - |
| 1778037248 | 21.67° C | 53% | 1011 hPa | 0 mm | - | 0 W/m² | - |
| 1778036945 | 21.67° C | 51% | 1011 hPa | 0 mm | - | 0 W/m² | - |
| 1778036643 | 21.67° C | 52% | 1010.9 hPa | 0 mm | - | 0 W/m² | - |
| 1778036340 | 21.67° C | 54% | 1011.1 hPa | 0 mm | - | 0 W/m² | - |
| 1778036037 | 21.11° C | 53% | 1011 hPa | 0 mm | - | 0 W/m² | - |
| 1778035734 | 21.67° C | 53% | 1011.3 hPa | 0 mm | - | 0 W/m² | - |
| 1778035431 | 21.11° C | 52% | 1011 hPa | 0 mm | - | 0 W/m² | - |
| 1778035126 | 21.11° C | 53% | 1011.1 hPa | 0 mm | - | 0 W/m² | - |
| 1778034824 | 21.11° C | 52% | 1011 hPa | 0 mm | - | 0 W/m² | - |
| 1778034520 | 21.11° C | 52% | 1010.9 hPa | 0 mm | - | 0 W/m² | - |
| 1778034218 | 21.11° C | 53% | 1011 hPa | 0 mm | - | 0 W/m² | - |
| 1778033916 | 21.11° C | 53% | 1010.9 hPa | 0 mm | - | 0 W/m² | - |
| 1778033613 | 21.11° C | 53% | 1011.1 hPa | 0 mm | - | 0 W/m² | - |
* Rain latest hour (hover to see other rain measurements)
** Current wind speed in m/s (hover to see current wind gust speed)